Mitchell, SD

6:30 AM CST on December 12, 2017 (GMT -0600)
Mitchell Municipal

Weather History for KMHE - August, 2014

Change the Weather History Date:

Wednesday, August 20, 2014

  Actual Average Record
Temperature  
Mean Temperature 76 °F 72 °F  
Max Temperature 87 °F 83 °F 103 °F (1955)
Min Temperature 65 °F 60 °F 37 °F (1950)
Degree Days  
Heating Degree Days 0 0  
Month to date heating degree days 0 0  
Since 1 June heating degree days 35 40  
Since 1 July heating degree days 9 5  
Cooling Degree Days 11 7  
Month to date cooling degree days 127 163  
Year to date cooling degree days 579 681  
Since 1 June cooling degree days 501 641  
Growing Degree Days 26 (Base 50)    
Moisture  
Dew Point 68 °F    
Average Humidity 78    
Maximum Humidity 94    
Minimum Humidity 61    
Precipitation  
Precipitation 0.30 in 0.07 in 2.28 in (2002)
Month to date precipitation 1.99 1.60  
Year to date precipitation 12.27 15.57  
Snow  
Snow 0.00 in - 0.00 in ()
Month to date snowfall 0.0  
Since 1 June snowfall 0.0  
Since 1 July snowfall 0.0  
Snow Depth 0.00 in    
Sea Level Pressure  
Sea Level Pressure 29.73 in    
Wind  
Wind Speed 11 mph (SE)    
Max Wind Speed 24 mph    
Max Gust Speed 29 mph    
Visibility 10 miles    
Events Rain , Thunderstorm    
T = Trace of Precipitation, MM = Missing Value Source: NWS Daily Summary

Daily Weather History Graph

Daily Weather History Graph

Search for Another Location

Airport or City:

Trip Planner

Search our weather history database for the weather conditions in past years. The results will help you decide how hot, cold, wet, or windy it might be!

Date:

Astronomy

Aug. 20, 2014 Rise Set
Actual Time 6:42 AM CDT 8:28 PM CDT
Civil Twilight 6:11 AM CDT 8:58 PM CDT
Nautical Twilight 5:34 AM CDT 9:35 PM CDT
Astronomical Twilight 4:53 AM CDT 10:15 PM CDT
Moon 2:19 AM CDT (8/20) 5:17 PM CDT (8/20)
Length of Visible Light 14h 47m
Length of Day
13h 45m
Waning Crescent, 20% of the Moon is Illuminated
Aug 20
Waning Crescent
Aug 25
New
Sep 2
First Quarter
Sep 8
Full
Sep 15
Last Quarter

Hourly Weather History & Observations

Time (CDT) Temp. Heat Index Dew Point Humidity Pressure Visibility Wind Dir Wind Speed Gust Speed Precip Events Conditions
12:53 AM 68.0 °F - 63.0 °F 84% 29.75 in 10.0 mi SE 6.9 mph - N/A   Clear
1:53 AM 68.0 °F - 63.0 °F 84% 29.73 in 10.0 mi SSE 8.1 mph - N/A   Clear
2:53 AM 68.0 °F - 63.0 °F 84% 29.73 in 10.0 mi ESE 3.5 mph - N/A   Clear
3:53 AM 70.0 °F - 64.0 °F 81% 29.72 in 10.0 mi SE 6.9 mph - N/A   Scattered Clouds
4:35 AM 70.0 °F - 64.9 °F 84% 29.76 in 10.0 mi SE 8.1 mph - 0.00 in Rain , Thunderstorm Light Rain
4:53 AM 70.0 °F - 64.9 °F 84% 29.73 in 10.0 mi East 10.4 mph - 0.00 in Thunderstorm Mostly Cloudy
5:05 AM 69.1 °F - 64.9 °F 87% 29.76 in 10.0 mi NE 6.9 mph - N/A   Mostly Cloudy
5:14 AM 69.1 °F - 64.9 °F 87% 29.78 in 10.0 mi WNW 10.4 mph - N/A Thunderstorm Scattered Clouds
5:21 AM 70.0 °F - 64.9 °F 84% 29.80 in 10.0 mi WNW 23.0 mph 27.6 mph N/A Thunderstorm Thunderstorm
5:36 AM 68.0 °F - 66.0 °F 93% 29.78 in 1.0 mi North 10.4 mph 18.4 mph 0.30 in Rain , Thunderstorm Heavy Thunderstorms and Rain
5:44 AM 68.0 °F - 66.0 °F 93% 29.77 in 3.0 mi North 13.8 mph - 0.30 in Rain , Thunderstorm Light Thunderstorms and Rain
5:48 AM 68.0 °F - 66.2 °F 94% 29.77 in 10.0 mi North 12.7 mph - 0.30 in Rain Light Rain
5:53 AM 68.0 °F - 66.0 °F 93% 29.75 in 10.0 mi North 11.5 mph - 0.30 in   Scattered Clouds
6:53 AM 70.0 °F - 66.0 °F 87% 29.73 in 10.0 mi SE 15.0 mph - N/A   Clear
7:53 AM 69.1 °F - 66.0 °F 90% 29.72 in 10.0 mi SE 13.8 mph - N/A   Clear
8:53 AM 70.0 °F - 66.0 °F 87% 29.73 in 10.0 mi SSE 16.1 mph 25.3 mph N/A   Clear
9:53 AM 75.0 °F - 66.9 °F 76% 29.72 in 10.0 mi SSE 16.1 mph 24.2 mph N/A   Clear
10:53 AM 79.0 °F - 68.0 °F 69% 29.73 in 10.0 mi SSE 12.7 mph - N/A   Clear
11:53 AM 80.1 °F 82.7 °F 68.0 °F 67% 29.72 in 10.0 mi South 15.0 mph - N/A   Clear
12:53 PM 84.9 °F 89.4 °F 70.0 °F 61% 29.70 in 10.0 mi SE 10.4 mph - N/A   Clear
1:53 PM 84.0 °F 89.0 °F 71.1 °F 65% 29.71 in 10.0 mi SSE 13.8 mph 21.9 mph N/A   Clear
2:53 PM 82.9 °F 86.5 °F 69.1 °F 63% 29.71 in 10.0 mi SSE 12.7 mph - N/A   Clear
3:53 PM 81.0 °F 84.1 °F 69.1 °F 67% 29.70 in 10.0 mi SSE 15.0 mph 28.8 mph N/A   Clear
4:53 PM 79.0 °F - 69.1 °F 72% 29.70 in 10.0 mi SE 12.7 mph 19.6 mph N/A   Partly Cloudy
5:53 PM 79.0 °F - 70.0 °F 74% 29.71 in 10.0 mi SSE 11.5 mph - N/A   Clear
6:53 PM 81.0 °F 84.9 °F 71.1 °F 72% 29.70 in 10.0 mi SSE 12.7 mph - N/A   Clear
7:53 PM 79.0 °F - 72.0 °F 79% 29.69 in 10.0 mi SE 9.2 mph - N/A   Clear
8:53 PM 77.0 °F - 72.0 °F 84% 29.69 in 10.0 mi SE 10.4 mph - N/A   Mostly Cloudy
9:53 PM 75.9 °F - 72.0 °F 87% 29.69 in 10.0 mi SE 6.9 mph - N/A   Mostly Cloudy
10:53 PM 75.0 °F - 73.0 °F 94% 29.66 in 10.0 mi SE 9.2 mph - N/A   Clear
11:53 PM 75.0 °F - 73.0 °F 94% 29.67 in 10.0 mi SE 6.9 mph - N/A   Clear